Weather

Vsebine: Paragliding sitesCurrent conditionsCurrent conditions (amateur)Radar rainfal imageMeteo stationsPanoramic cameras


Current conditions (official report)

Show amateur stations

Click on a specific station to see its location

Location Weather conditions Temperature Wind Air pressure Last updated Geopedia
    °C direction speed (m/s) gusts (m/s) hPa    
Babno Polje 4   - - 2019-05-25 05:04:00
Babno Polje (756 m) 5   - - 2016-01-12 07:40:00
Bilje Nova Gorica 12   1 1 1014 2019-05-25 05:13:00
Bilje pri Novi Gorici 12   1 - 1014 2019-05-25 05:12:00
Blegoš 10   - - 2019-05-25 05:13:00
Bohinjska Češnjica 9   - - 2019-05-25 05:13:00
Boršt Gorenja vas 9   1 1 1015 2019-05-25 05:06:00
Bovec 11   1 1 1015 2019-05-25 05:06:00
Breginj 10   - - 2019-05-25 05:13:00
Bukovski vrh 10   - - 2019-05-25 05:13:00
Celje 9   1 - 1015 2019-05-25 05:12:00
Cerkniško jezero 9   - - 2019-05-25 05:14:00
Črnomelj 10   - - 1014 2019-05-25 05:12:00
Davča 11   - - 2019-05-25 05:13:00
Dobliče Črnomelj 10   - - 1014 2019-05-25 05:03:00
Dolenje Ajdovščina 10   - - 2019-05-25 05:04:00
Gačnik 9   - - 2019-05-25 05:13:00
Godnje 11   2 3 2019-05-25 05:13:00
Gornji Grad 8   - - 2019-05-25 05:13:00
Hočko Pohorje 13   - - 2019-05-25 05:13:00
Hrastnik 9   - - 1015 2019-05-25 05:06:00
Idrija 9   - - 2019-05-25 05:13:00
Ilirska Bistrica 9   - 1 2019-05-25 05:06:00
Iskrba 8   - 1 2019-05-25 05:13:00
Jeronim 11   - - 2019-05-25 05:13:00
Jeruzalem 14   - - 2019-05-25 05:13:00
Jezersko 5   - - 2019-05-25 05:13:00
Juršče   - - 2016-09-13 14:33:00
Kamniška Bistrica 7   - - 2019-05-25 05:13:00
Kanin 4   - - 2019-05-25 05:13:00
Katarina nad Ljubljano 19   - - 2019-05-24 20:42:00
Kočevje 9   - 1 2019-05-25 05:05:00
Koper Kapitanija 14   2 4 1013 2019-05-25 05:07:00
Korensko sedlo 8   - - 2019-05-25 05:13:00
Kraj. park Goričko 15   2 3 2019-05-25 05:04:00
Kranj 11   - - 2019-05-25 05:13:00
Kredarica 2   1 1 2019-05-25 05:13:00
Krn 12   - - 2019-05-25 05:13:00
Krško 10   - 1 1015 2019-05-25 05:08:00
Krvavec 8   3 4 2019-05-25 05:13:00
Kubed 10   - - 2019-05-25 05:13:00
Kum 10   3 3 2019-05-25 05:13:00
Lendava 10   1 1 1014 2019-05-25 05:07:00
Let. E. Rusjana Maribor 10   1 2 1014 2019-05-25 05:04:00
Let. J. Pučnika Lj. 0   2 3 1011 2015-11-26 11:03:00
Let. J. Pučnika Ljubljana 9   - 1 1015 2019-05-25 05:13:00
Letališče Cerklje ob Krki 10   1 - 1014 2019-05-25 05:12:00
Letališče Edvarda Rusjana Maribor 10   1 - 1014 2019-05-25 05:12:00
Letališče Jožeta Pučnika Ljubljana 9   - - 1014 2019-05-25 05:12:00
Letališče Lesce 10   1 - 1015 2019-05-25 05:12:00
Letališče Portorož 12   4 - 1013 2019-05-25 05:12:00
Lisca 12   3 4 2019-05-25 05:13:00
Lisca (943 m) 9   5 12 2016-03-29 14:02:00
Litija 10   - - 2019-05-25 05:13:00
Ljubljana 13   1 - 1014 2019-05-25 05:12:00
Logarska dolina 6   - - 2019-05-25 05:13:00
Logatec 6   - - 2019-05-25 05:13:00
Luka Koper 12   1 2 2019-05-25 05:05:00
Malkovec 12   1 2 1015 2019-05-25 05:07:00
Maribor 8   2 4 2019-05-25 05:13:00
Maribor - Tabor 11   1 2 2019-05-25 05:02:00
Marinča vas 8   - - 2019-05-25 05:13:00
Metlika 10   - - 2019-05-25 05:13:00
Mežica 9   - - 2019-05-25 05:13:00
Miklavž na Gorjancih 11   - - 2019-05-25 05:13:00
Murska Sobota 9   1 2 1014 2019-05-25 05:13:00
Nanos 10   1 2 2019-05-25 05:13:00
Nova Gorica 12   - 1 2019-05-25 05:06:00
Nova vas - Bloke 5   - - 2019-05-25 05:13:00
Novo mesto 10   1 1 1015 2019-05-25 05:13:00
Osilnica 9   - - 2019-05-25 05:13:00
Otlica 10   2 3 2019-05-25 05:03:00
Otlica (965 m) 7   4 7 2016-03-31 08:24:00
Park Škocj. jame 8   1 2 1015 2019-05-25 05:02:00
Pasja ravan 10   1 2 2019-05-25 05:13:00
Pavličevo sedlo 9   - - 2019-05-25 05:13:00
Piran-ocean. boja 18   2 3 2019-05-25 04:44:00
Planina pod Golico 8   - - 2019-05-25 05:13:00
Podčetrtek 10   2 3 1014 2019-05-25 05:03:00
Podnanos 12   4 5 2019-05-25 05:13:00
Postojna 6   - 1 1016 2019-05-25 05:13:00
Predel 9   - - 2019-05-25 05:13:00
Ptuj 9   1 1 2019-05-25 05:13:00
Ptuj - Terme -2   2 3 2017-01-19 14:35:00
Radegunda 10   - - 2019-05-25 05:13:00
Radenci 9   - - 1015 2019-05-25 05:04:00
Rateče 7   - - 2019-05-25 05:12:00
Rateče (864 m) 7   - - 2019-05-25 05:04:00
Ratitovec 9   1 2 2019-05-25 05:13:00
Ravne na Koroškem 9   - 3 2019-05-25 05:06:00
Rogaška Slatina 9   - 1 2019-05-25 05:13:00
Rogla 8   3 3 2019-05-25 05:14:00
Rogla (1492 m) -11   4 7 2016-01-18 10:32:00
Rudno polje 5   - 1 2019-05-25 05:13:00
Rudno polje (1347 m) -2   1 3 2015-10-20 07:36:00
Sevno 14   - - 2019-05-25 05:13:00
Slavnik 12   3 4 2019-05-25 05:13:00
Slovenj Gradec 8   - - 2019-05-25 05:12:00
Slovenske Konjice 9   - - 2019-05-25 05:13:00
Sviščaki 9   1 1 2019-05-25 05:13:00
Šebreljski vrh 12   - - 2019-05-25 05:13:00
Šmartno pri Slovenj Gradcu 7   - 1 2019-05-25 05:13:00
Tatre 10   - - 2019-05-23 05:23:00
Tolmin - Volče 11   1 1 2019-05-25 05:13:00
Topol 14   - - 2019-05-25 05:13:00
Trbovlje 9   - 1 2019-05-25 05:07:00
Trebnje 10   - - 2019-05-25 05:13:00
Trije Kralji na Pohorju 9   - - 2019-05-25 05:13:00
Trojane - Limovce 12   2 2 1014 2019-05-25 05:13:00
Uršlja gora 7   4 5 2019-05-25 05:13:00
Vedrijan 15   - - 2019-05-25 05:13:00
Velenje 10   - - 2019-05-25 05:13:00
Velike Lašče 9   - 1 2019-05-25 05:13:00
Vogel 5   - 1 2019-05-25 05:13:00
Vojsko 15   - - 2019-05-24 14:42:00
Vrbanski plato -2   2 3 2016-12-07 11:23:00
Vrhnika 11   3 4 2019-05-25 05:13:00
Vršič 8   - - 2019-05-25 05:13:00
Zadlog 6   - - 2019-05-25 05:13:00
Zelenica 5   - - 2019-05-25 05:13:00
Zgornja Kapla 10   1 1 2019-05-25 05:13:00
Zgornja Radovna 7   - - 2019-05-25 05:13:00
Zgornja Sorica 10   - - 2019-05-25 05:13:00
Source: Slovenian Environmental Agency, meteo.si